This demonstration page uses our WeatherBlox Daily Observations layout. Learn more.

Left ArrowRight Arrow

Hourly Observations for November 5, 2018

Temp ( °F °C ) Dew Point ( °F °C ) Humidity (%) Winds ( mph kmh ) Pressure ( in mb ) Visibility ( mi km ) Precip ( " mm )
12:52 am 00:52 Mostly Cloudy 39 3.9 34 1.1 82 82 SSE 6 9 29.81 1010 10 16 0.00 0.00
1:52 am 01:52 Cloudy 41 5 35 1.7 79 79 SSE 9 15 29.80 1009 10 16 0.00 0.00
2:52 am 02:52 Cloudy 42 5.6 36 2.2 79 79 SE 12 19 29.75 1008 10 16 0.00 0.00
3:52 am 03:52 Cloudy 42 5.6 35 1.7 76 76 SE 14 22 29.72 1006 10 16 0.00 0.03
4:52 am 04:52 Cloudy with Light Rain 42 5.6 36 2.2 79 79 SSE 12 19 29.71 1006 10 16 0.00 0.03
5:52 am 05:52 Cloudy with Light Rain 44 6.7 37 2.8 76 76 SSE 14 22 29.70 1006 10 16 0.00 0.03
6:52 am 06:52 Cloudy with Light Rain 44 6.7 38 3.3 79 79 SSE 14 22 29.69 1005 10 16 0.01 0.25
7:52 am 07:52 Cloudy with Light Rain 43 6.1 39 3.9 86 86 SSE 12 19 29.67 1005 10 16 0.02 0.51
8:52 am 08:52 Cloudy with Light Rain 44 6.7 40 4.4 85 85 SSE 9 15 29.65 1004 10 16 0.00 0.03
9:52 am 09:52 Cloudy with Light Rain 45 7.2 41 5 86 86 SE 12 19 29.62 1003 7 11 0.02 0.51
10:09 am 10:09 Cloudy with Light Rain 44 6.7 41 5 89 89 SE 13 20 29.62 1003 6 10 0.02 0.51
10:31 am 10:31 Cloudy with Light Rain 45 7.2 41 5 86 86 SE 13 20 29.62 1003 6 10 0.03 0.76
10:52 am 10:52 Cloudy with Light Rain 45 7.2 42 5.6 90 90 SSE 16 26 29.62 1003 5 8 0.03 0.76
11:52 am 11:52 Cloudy with Light Rain 46 7.8 42 5.6 86 86 SSE 14 22 29.59 1002 6 10 0.04 1.02
12:24 pm 12:24 Cloudy with Light Rain 46 7.8 43 6.1 89 89 SSE 14 22 29.59 1002 10 16 0.01 0.25
12:52 pm 12:52 Cloudy 46 7.8 43 6.1 89 89 SSE 14 22 29.56 1001 6 10 0.01 0.25
1:07 pm 13:07 Cloudy with Drizzle 46 7.8 43 6.1 89 89 SSE 13 20 29.56 1001 2 3 0.00 0.03
1:52 pm 13:52 Cloudy with Drizzle 47 8.3 44 6.7 90 90 S 10 17 29.54 1000 2 3 0.00 0.03
2:16 pm 14:16 Cloudy with Drizzle 47 8.3 44 6.7 90 90 S 7 11 29.56 1001 2 2 0.00 0.03
2:52 pm 14:52 Cloudy with Light Rain 47 8.3 45 7.2 93 93 S 7 11 29.54 1000 2 3 0.01 0.25
3:27 pm 15:27 Cloudy with Mist and Fog 48 8.9 46 7.8 93 93 SW 5 7 29.56 1001 4 6 0.01 0.25
3:52 pm 15:52 Mostly Cloudy 50 10 45 7.2 83 83 W 6 9 29.54 1000 7 11 0.01 0.25
4:52 pm 16:52 Cloudy 50 10 45 7.2 83 83 W 9 15 29.56 1001 7 11 0.00 0.00
5:52 pm 17:52 Cloudy 48 8.9 42 5.6 80 80 WNW 18 30 29.58 1002 7 11 0.00 0.00
6:52 pm 18:52 Cloudy 47 8.3 40 4.4 77 77 NW 18 30 29.62 1003 7 11 0.00 0.00
7:52 pm 19:52 Mostly Cloudy 46 7.8 39 3.9 77 77 WNW 13 20 29.64 1004 10 16 0.00 0.00
8:43 pm 20:43 Mostly Cloudy 47 8.3 39 3.9 74 74 WNW 18 30 29.65 1004 10 16 0.00 0.00
8:52 pm 20:52 Mostly Cloudy 47 8.3 39 3.9 74 74 WNW 20 31 29.66 1004 10 16 0.00 0.00
9:21 pm 21:21 Cloudy with Light Rain 45 7.2 41 5 86 86 NW 13 20 29.68 1005 3 5 0.00 0.03
9:52 pm 21:52 Cloudy 46 7.8 39 3.9 77 77 WNW 22 35 29.67 1005 7 11 0.00 0.03
10:31 pm 22:31 Cloudy 46 7.8 37 2.8 71 71 WNW 20 31 29.68 1005 7 11 0.00 0.00
10:52 pm 22:52 Cloudy 45 7.2 37 2.8 74 74 WNW 22 35 29.70 1006 7 11 0.00 0.00
11:46 pm 23:46 Cloudy 45 7 36 2 71 71 NW 22 35 29.71 1006 10 16 0.00 0.00
11:52 pm 23:52 Cloudy 45 7.2 36 2.2 71 71 NW 23 37 29.72 1007 10 16 0.00 0.00

Powered by AerisWeather